CW9676 Weather Reports


time (UTC)temp
C
wind
direction
speed
KPH
gust
KPH
rain 1hr
cm
rain 24hr
cm
rain mn
cm
humidity
%
barometer
mb
20260504223058 22 194 20.9 37.0 0.00 0.00 0.00 19 1005.1
20260504222121 21 167 17.7 37.0 0.00 0.00 0.00 20 1005.1
20260504221052 21 173 19.3 35.4 0.00 0.00 0.00 21 1005.3
20260504214914 21 223 20.9 40.2 0.00 0.00 0.00 20 1005.4
20260504213843 21 194 20.9 40.2 0.00 0.00 0.00 19 1005.7
20260504212840 21 4 19.3 38.6 0.00 0.00 0.00 21 1005.9
20260504210719 21 4 19.3 37.0 0.00 0.00 0.00 22 1006.1
20260504205718 21 179 17.7 43.5 0.00 0.00 0.00 22 1006.6
20260504204659 21 212 20.9 43.5 0.00 0.00 0.00 22 1006.7
20260504203646 21 222 22.5 37.0 0.00 0.00 0.00 22 1006.9
20260504201502 21 195 22.5 43.5 0.00 0.00 0.00 20 1006.9
20260504200437 21 180 17.7 41.8 0.00 0.00 0.00 21 1007.0
20260504195406 20 188 24.1 41.8 0.00 0.00 0.00 22 1007.2
20260504194416 20 195 22.5 37.0 0.00 0.00 0.00 21 1006.9
20260504193415 21 200 19.3 37.0 0.00 0.00 0.00 21 1007.1
20260504192419 20 171 20.9 30.6 0.00 0.00 0.00 22 1006.9
20260504191443 20 239 22.5 41.8 0.00 0.00 0.00 22 1007.0
20260504190425 20 222 24.1 41.8 0.00 0.00 0.00 20 1007.2
20260504185405 20 229 24.1 43.5 0.00 0.00 0.00 21 1007.3
20260504182050 20 222 20.9 38.6 0.00 0.00 0.00 22 1007.3
20260504181056 20 244 17.7 32.2 0.00 0.00 0.00 24 1007.2
20260504180104 19 176 19.3 32.2 0.00 0.00 0.00 24 1007.5
20260504175118 19 188 17.7 30.6 0.00 0.00 0.00 27 1007.5
20260504174117 19 175 17.7 33.8 0.00 0.00 0.00 28 1007.5
20260504173128 18 161 17.7 33.8 0.00 0.00 0.00 30 1007.8
20260504172135 18 180 17.7 32.2 0.00 0.00 0.00 32 1007.9
20260504171140 18 173 16.1 32.2 0.00 0.00 0.00 31 1008.2
20260504140656 15 203 8.0 17.7 0.00 0.00 0.00 40 1008.2
20260504130527 12 250 6.4 20.9 0.00 0.00 0.00 43 1007.5
20260504110313 12 242 4.8 12.9 0.00 0.00 0.00 39 1007.7
20260504050329 16 43 0.0 3.2 0.00 0.00 0.00 50 1008.8
20260504045318 15 42 1.6 3.2 0.00 0.00 0.00 51 1008.9
20260504043235 15 36 3.2 6.4 0.00 0.00 0.00 51 1009.0
20260504042217 16 42 3.2 6.4 0.00 0.00 0.00 49 1009.3
20260504041152 16 59 1.6 3.2 0.00 0.00 0.00 49 1009.2
20260504040149 16 59 1.6 3.2 0.00 0.00 0.00 48 1009.1
20260504035145 16 100 0.0 3.2 0.00 0.00 0.00 49 1009.0
20260504034143 16 18 0.0 4.8 0.00 0.00 0.00 49 1008.9
20260504032029 16 107 0.0 3.2 0.00 0.00 0.00 47 1008.8
20260504031014 16 108 0.0 8.0 0.00 0.00 0.00 48 1008.6
20260504024840 16 57 4.8 8.0 0.00 0.00 0.00 50 1008.6
20260504023840 16 68 0.0 6.4 0.00 0.00 0.00 49 1008.6
20260504022850 17 75 1.6 6.4 0.00 0.00 0.00 48 1008.3
20260504021855 17 106 0.0 0.0 0.00 0.00 0.00 46 1008.6
20260504020859 17 96 1.6 8.0 0.00 0.00 0.00 45 1008.7
20260504015901 18 78 3.2 14.5 0.00 0.00 0.00 45 1008.8
20260504014859 18 104 3.2 14.5 0.00 0.00 0.00 43 1008.9
20260504013826 18 86 4.8 12.9 0.00 0.00 0.00 42 1008.9
20260504012757 19 130 3.2 16.1 0.00 0.00 0.00 40 1008.8
20260504011803 20 161 8.0 16.1 0.00 0.00 0.00 37 1008.9
20260504010820 20 142 6.4 14.5 0.00 0.00 0.00 37 1009.0
20260504004739 19 126 6.4 14.5 0.00 0.00 0.00 39 1009.0
20260504003744 19 150 4.8 12.9 0.00 0.00 0.00 39 1009.2
20260504001612 19 57 6.4 16.1 0.00 0.00 0.00 41 1009.4
20260503235507 19 67 8.0 19.3 0.00 0.00 0.00 43 1009.6
20260503234443 19 53 8.0 19.3 0.00 0.00 0.00 43 1009.6
20260503232330 20 53 8.0 24.1 0.00 0.00 0.00 42 1009.8
20260503231346 19 105 14.5 24.1 0.00 0.00 0.00 42 1009.8
20260503230351 20 44 9.7 19.3 0.00 0.00 0.00 41 1010.0
20260503225334 21 73 9.7 19.3 0.00 0.00 0.00 40 1010.2
20260503224326 20 88 11.3 20.9 0.00 0.00 0.00 41 1010.2